[[{"header":{"parameterUnit":"m.s-1","parameterCategory":1,"la1":30.2991,"la2":30.254,"lo1":-89.0895,"lo2":-89.0444,"dy":0.0017,"dx":0.0017,"nx":28,"ny":28,"refTime":"2025-07-04T09:00:00:Z","depth":0,"parameterNumber":2,"parameterNumberName":"U-component_of_WINDS"},"data":[0,0,0,0,0,0,0,0,0,0,0,0,0,0,0,0,0,0,0,0,0,0,0,0,0,0,0,0,0,0,0,0,0,0,0,0,0,0,0,0,0,0,0,0,0,0,0,0,0,0,0,0,0,0,0,0,0,0,-1.7107,-1.7107,0,-1.7122,-1.7122,-1.7123,-1.7025,-1.7022,-1.702,-1.7017,-1.7035,-1.7038,-1.7041,0,0,0,0,0,0,0,0,0,0,0,0,0,-1.6995,-1.6997,-1.7107,-1.7107,-1.7107,-1.7122,-1.7122,-1.7123,-1.7026,-1.7022,-1.7019,-1.7016,-1.7034,-1.7037,-1.7041,0,0,0,0,0,0,0,0,0,0,0,0,0,-1.703,-1.6998,-1.7107,-1.7061,-1.7057,-1.7122,-1.7122,-1.7123,-1.7026,-1.7022,-1.7018,-1.7014,-1.7033,-1.7037,-1.7042,-1.7153,0,0,-1.7056,-1.7058,0,0,0,0,0,0,0,0,-1.7028,-1.7034,-1.7067,-1.7064,-1.706,-1.7067,-1.7089,-1.7133,-1.7027,-1.7038,-1.7017,-1.7012,-1.7049,-1.7052,-1.7064,-1.7154,-1.7154,-1.7056,-1.7059,-1.7061,-1.7062,0,0,0,0,0,0,0,-1.7026,-1.7033,-1.7113,-1.7068,-1.7063,-1.7039,-1.704,-1.7097,-1.7067,-1.7037,-1.703,-1.7033,-1.7046,-1.706,-1.7064,-1.7155,-1.7056,-1.706,-1.7063,-1.7064,-1.7335,-1.7339,0,0,0,0,0,0,-1.7029,-1.7032,-1.7113,-1.7113,-1.7033,-1.7045,-1.7045,-1.7069,-1.7066,-1.7061,-1.7036,-1.7028,-1.7054,-1.7059,-1.7064,-1.7194,-1.7061,-1.7065,-1.7068,-1.7331,-1.7336,-1.7341,0,0,0,0,0,0,-1.7027,-1.7038,-1.7112,-1.7071,-1.7078,-1.7051,-1.7079,-1.7072,-1.7085,-1.7065,-1.706,-1.7056,-1.7051,-1.7058,-1.7131,-1.7193,-1.7067,-1.7071,-1.7325,-1.7332,-1.7338,-1.7455,0,0,0,0,0,0,-1.7025,-1.7037,-1.708,-1.7072,-1.7081,-1.7179,-1.7083,-1.7075,-1.7093,-1.7083,-1.7082,-1.7078,-1.7048,-1.7125,-1.7136,-1.7197,-1.7075,-1.732,-1.7329,-1.7336,-1.7446,-1.7465,-1.7482,0,0,0,0,0,-1.7021,-1.7112,-1.7082,-1.7092,-1.7133,-1.7183,-1.7188,-1.7151,-1.7099,-1.7141,-1.7128,-1.7078,-1.7184,-1.7133,-1.7145,-1.7209,-1.7316,-1.7326,-1.7336,-1.7438,-1.7461,-1.7481,0,0,0,0,0,0,-1.7129,-1.7111,-1.7077,-1.7169,-1.7178,-1.7166,-1.7218,-1.7177,-1.7202,-1.7191,-1.7145,-1.7146,-1.7227,-1.7225,-1.7168,-1.7315,-1.7241,-1.7254,-1.7315,-1.7337,-1.7354,-1.7354,-1.7079,0,0,0,0,0,-1.7163,-1.7205,-1.7187,-1.7269,-1.7276,-1.7246,-1.7267,-1.7237,-1.7245,-1.7249,-1.7241,-1.7251,-1.7286,-1.7311,-1.7343,-1.7444,-1.7443,-1.7493,-1.7511,-1.7526,-1.7538,-1.7592,-1.7614,-1.7374,-1.7374,-1.7373,0,0,-1.7235,-1.723,-1.726,-1.7291,-1.7295,-1.7339,-1.725,-1.7301,-1.7334,-1.7257,-1.7326,-1.732,-1.7328,-1.7416,-1.7454,-1.7417,-1.7604,-1.7539,-1.7551,-1.7555,-1.7604,-1.7627,-1.7647,-1.7381,-1.7379,-1.7378,0,0,-1.7389,-1.7389,-1.7458,-1.7463,-1.7469,-1.7448,-1.7465,-1.7459,-1.7452,-1.752,-1.7463,-1.7501,-1.7563,-1.7571,-1.7583,-1.7737,-1.7693,-1.7749,-1.7843,-1.7896,-1.7915,-1.7931,-1.7987,-1.8008,-1.7761,-1.7761,-1.7761,0,-1.7478,-1.7542,-1.7499,-1.7553,-1.7569,-1.7499,-1.7568,-1.7575,-1.7592,-1.7605,-1.7561,-1.7637,-1.7638,-1.7726,-1.7764,-1.7776,-1.7793,-1.775,-1.7915,-1.7932,-1.7946,-1.7999,-1.802,-1.7768,-1.7767,-1.7766,-1.7766,0,-1.7651,-1.7697,-1.7751,-1.7768,-1.7789,-1.7851,-1.7817,-1.7844,-1.7812,-1.7796,-1.7866,-1.7864,-1.7893,-1.7911,-1.7881,-1.7996,-1.7972,-1.7923,-1.7848,-1.7977,-1.8026,-1.8045,-1.7778,-1.7775,-1.7773,-1.7771,0,0,-1.7876,-1.7866,-1.7887,-1.7894,-1.7894,-1.7928,-1.7986,-1.8014,-1.8038,-1.8051,-1.81,-1.8152,-1.8106,-1.812,-1.809,-1.8136,-1.8259,-1.808,-1.808,-1.8115,-1.8385,-1.8423,-1.8447,-1.8228,-1.8232,-1.8235,-1.8385,0,-1.8027,-1.8126,-1.8088,-1.819,-1.8231,-1.8164,-1.8214,-1.822,-1.8207,-1.824,-1.8224,-1.8263,-1.8199,-1.8206,-1.8249,-1.8235,-1.8313,-1.8223,-1.8273,-1.8276,-1.8275,-1.8473,-1.8514,-1.8655,-1.8403,-1.8406,-1.8409,0,-1.8217,-1.8237,-1.8343,-1.8335,-1.8351,-1.8397,-1.8419,-1.8451,-1.8456,-1.8442,-1.8457,-1.8416,-1.8473,-1.8396,-1.8473,-1.8413,-1.8431,-1.8427,-1.8431,-1.8436,-1.8352,-1.8484,-1.87,-1.8722,-1.8438,-1.8436,-1.8434,0,-1.8372,-1.8425,-1.8495,-1.8502,-1.8494,-1.8528,-1.8527,-1.8527,-1.8546,-1.8565,-1.8577,-1.8602,-1.8617,-1.8638,-1.8605,-1.8552,-1.8687,-1.8607,-1.8678,-1.8679,-1.8712,-1.8711,-1.8935,-1.8721,-1.872,-1.872,-1.872,0,-1.8546,-1.8614,-1.8564,-1.8607,-1.8681,-1.8635,-1.871,-1.8701,-1.8701,-1.8742,-1.8685,-1.8724,-1.8677,-1.8712,-1.8687,-1.8755,-1.8762,-1.8753,-1.8746,-1.8759,-1.876,-1.8772,-1.8762,-1.8726,-1.8724,-1.8723,-1.8722,0,-1.8732,-1.8702,-1.8774,-1.8759,-1.8757,-1.8812,-1.88,-1.884,-1.8821,-1.8873,-1.8882,-1.8853,-1.8891,-1.8859,-1.8896,-1.8879,-1.897,-1.8948,-1.8968,-1.8963,-1.9036,-1.903,-1.9277,-1.9307,-1.9072,-1.9075,-1.9076,0,-1.8846,-1.8897,-1.8887,-1.891,-1.8911,-1.8948,-1.8967,-1.8923,-1.8945,-1.8953,-1.8992,-1.9024,-1.9048,-1.9112,-1.9094,-1.9122,-1.9101,-1.9185,-1.9105,-1.9117,-1.9104,-1.9102,-1.9107,-1.9203,-1.9206,-1.9208,-1.921,0,-1.9052,-1.9034,-1.9062,-1.9085,-1.9108,-1.9124,-1.9136,-1.9158,-1.9113,-1.914,-1.9177,-1.9196,-1.9233,-1.9266,-1.9288,-1.9286,-1.9241,-1.9234,-1.9253,-1.9268,-1.9278,-1.9275,-1.9014,-1.923,-1.9228,-1.9226,-1.9225,-1.9224,-1.9206,-1.9248,-1.9247,-1.928,-1.9284,-1.9296,-1.9332,-1.9317,-1.9347,-1.9373,-1.9345,-1.9391,-1.9393,-1.9417,-1.942,-1.9456,-1.9421,-1.9447,-1.9454,-1.9461,-1.9472,-1.9271,-1.9459,-1.9459,-1.9458,-1.9457,-1.9457,0,-1.941,-1.9405,-1.9436,-1.9454,-1.948,-1.9433,-1.9443,-1.9468,-1.9509,-1.9514,-1.9538,-1.9581,-1.9612,-1.9596,-1.9623,-1.9655,-1.9635,-1.9664,-1.9662,-1.9662,-1.9501,-1.9484,-1.9679,-1.9679,-1.9679,-1.9679,-1.9679,-1.9679,-1.9519,-1.9586,-1.9568,-1.9636,-1.9631,-1.9675,-1.9685,-1.9695,-1.9699,-1.9749,-1.9775,-1.9763,-1.976,-1.9786,-1.9813,-1.9807,-1.9821,-1.9857,-1.9845,-1.9695,-1.9674,-1.9653,-1.9636,-1.986,-1.986,-2.0002,-2.0004,-2.0005]},{"header":{"parameterUnit":"m.s-1","parameterCategory":1,"la1":30.2991,"la2":30.254,"lo1":-89.0895,"lo2":-89.0444,"dy":0.0017,"dx":0.0017,"nx":28,"ny":28,"refTime":"2025-07-04T09:00:00:Z","depth":0,"parameterNumber":3,"parameterNumberName":"V-component_of_WINDS"},"data":[0,0,0,0,0,0,0,0,0,0,0,0,0,0,0,0,0,0,0,0,0,0,0,0,0,0,0,0,0,0,0,0,0,0,0,0,0,0,0,0,0,0,0,0,0,0,0,0,0,0,0,0,0,0,0,0,0,0,-2.364,-2.364,0,-2.3706,-2.3707,-2.3708,-2.3701,-2.37,-2.3699,-2.3698,-2.3765,-2.3768,-2.3771,0,0,0,0,0,0,0,0,0,0,0,0,0,-2.3505,-2.3507,-2.364,-2.364,-2.3641,-2.3706,-2.3707,-2.3708,-2.3701,-2.37,-2.3699,-2.3698,-2.3765,-2.3768,-2.3771,0,0,0,0,0,0,0,0,0,0,0,0,0,-2.3566,-2.3508,-2.3639,-2.3646,-2.3647,-2.3706,-2.3707,-2.3708,-2.3702,-2.37,-2.3699,-2.3697,-2.3763,-2.3768,-2.3772,-2.3828,0,0,-2.3784,-2.3786,0,0,0,0,0,0,0,0,-2.3563,-2.3571,-2.3644,-2.3645,-2.3647,-2.3694,-2.3684,-2.3749,-2.3702,-2.3681,-2.3698,-2.3696,-2.3743,-2.3749,-2.3765,-2.3832,-2.3834,-2.3785,-2.3787,-2.3789,-2.379,0,0,0,0,0,0,0,-2.3559,-2.3568,-2.3666,-2.3645,-2.3647,-2.3645,-2.3652,-2.3696,-2.372,-2.3683,-2.3682,-2.369,-2.3743,-2.3761,-2.3766,-2.3835,-2.3785,-2.3788,-2.3791,-2.3792,-2.3951,-2.3953,0,0,0,0,0,0,-2.3553,-2.3565,-2.3664,-2.3668,-2.36,-2.3648,-2.3656,-2.368,-2.3719,-2.3724,-2.3692,-2.369,-2.3754,-2.3761,-2.3768,-2.3837,-2.3789,-2.3793,-2.3795,-2.395,-2.3952,-2.3954,0,0,0,0,0,0,-2.355,-2.3562,-2.3661,-2.3616,-2.3629,-2.3652,-2.3679,-2.3683,-2.37,-2.3726,-2.373,-2.3705,-2.3753,-2.3763,-2.3813,-2.3839,-2.3795,-2.3798,-2.3948,-2.395,-2.3953,-2.3974,0,0,0,0,0,0,-2.3546,-2.3561,-2.3583,-2.3617,-2.3631,-2.3706,-2.3681,-2.3685,-2.3707,-2.3705,-2.374,-2.3744,-2.3753,-2.3807,-2.3818,-2.3844,-2.3802,-2.3945,-2.3949,-2.3952,-2.3971,-2.3977,-2.3982,0,0,0,0,0,-2.3542,-2.3586,-2.3584,-2.3596,-2.366,-2.3707,-2.3715,-2.3725,-2.3709,-2.3731,-2.3748,-2.3743,-2.3835,-2.3813,-2.3824,-2.3852,-2.3944,-2.3948,-2.3952,-2.3969,-2.3976,-2.3982,0,0,0,0,0,0,-2.3554,-2.3591,-2.3589,-2.3646,-2.3674,-2.3706,-2.3734,-2.3732,-2.3764,-2.3761,-2.3772,-2.3779,-2.383,-2.3846,-2.3821,-2.3909,-2.3887,-2.3894,-2.3896,-2.3903,-2.3909,-2.3903,-2.3805,0,0,0,0,0,-2.3564,-2.36,-2.363,-2.3677,-2.3691,-2.371,-2.3731,-2.3736,-2.3765,-2.3776,-2.3797,-2.3825,-2.386,-2.3882,-2.3916,-2.3974,-2.3981,-2.3999,-2.4004,-2.4009,-2.4014,-2.4045,-2.4053,-2.3967,-2.3967,-2.3967,0,0,-2.3584,-2.3608,-2.363,-2.3681,-2.3702,-2.3739,-2.372,-2.376,-2.3786,-2.3782,-2.3831,-2.3848,-2.3879,-2.3933,-2.3958,-2.3948,-2.4039,-2.4014,-2.4017,-2.402,-2.4049,-2.4057,-2.4065,-2.3969,-2.3969,-2.3968,0,0,-2.3639,-2.3661,-2.3703,-2.3725,-2.3759,-2.3771,-2.3781,-2.3814,-2.3824,-2.3874,-2.3872,-2.3904,-2.3964,-2.3986,-2.4005,-2.4069,-2.4065,-2.4079,-2.4108,-2.4138,-2.4144,-2.415,-2.4172,-2.418,-2.4085,-2.4085,-2.4085,0,-2.3659,-2.3715,-2.3725,-2.3764,-2.3786,-2.3785,-2.3827,-2.3848,-2.389,-2.3905,-2.3893,-2.3969,-2.399,-2.4049,-2.4064,-2.408,-2.4091,-2.4075,-2.4143,-2.4149,-2.4155,-2.4175,-2.4184,-2.4086,-2.4086,-2.4086,-2.4086,0,-2.3738,-2.3776,-2.3805,-2.3847,-2.3872,-2.3913,-2.3928,-2.3953,-2.3956,-2.3969,-2.4019,-2.4045,-2.4083,-2.4098,-2.4101,-2.4157,-2.415,-2.414,-2.4119,-2.4164,-2.4184,-2.4192,-2.4088,-2.4088,-2.4087,-2.4087,0,0,-2.3802,-2.3848,-2.3859,-2.3877,-2.3914,-2.3944,-2.3984,-2.4022,-2.4042,-2.4072,-2.4105,-2.4156,-2.4148,-2.417,-2.4175,-2.4202,-2.4249,-2.4189,-2.419,-2.4198,-2.4312,-2.4318,-2.4327,-2.4247,-2.4249,-2.425,-2.4309,0,-2.386,-2.3931,-2.3942,-2.4005,-2.4039,-2.4039,-2.4074,-2.41,-2.4113,-2.4145,-2.416,-2.4195,-2.4182,-2.4195,-2.4221,-2.4238,-2.4272,-2.4234,-2.4277,-2.4279,-2.4269,-2.4337,-2.4344,-2.4398,-2.4316,-2.4318,-2.4319,0,-2.3936,-2.3968,-2.4035,-2.4066,-2.4081,-2.4112,-2.4148,-2.4178,-2.4207,-2.4215,-2.424,-2.4242,-2.4283,-2.4261,-2.4317,-2.4291,-2.431,-2.4321,-2.4323,-2.4327,-2.4301,-2.4342,-2.4416,-2.4423,-2.4331,-2.433,-2.4329,0,-2.3975,-2.4035,-2.4082,-2.4098,-2.4136,-2.4158,-2.4175,-2.4203,-2.4225,-2.4256,-2.427,-2.4305,-2.4324,-2.4351,-2.4363,-2.4346,-2.4418,-2.4397,-2.4426,-2.4425,-2.444,-2.4439,-2.4517,-2.4454,-2.4454,-2.4454,-2.4453,0,-2.4038,-2.4078,-2.41,-2.4129,-2.4174,-2.4185,-2.423,-2.4246,-2.427,-2.4302,-2.4304,-2.4333,-2.4348,-2.4379,-2.4389,-2.4434,-2.4442,-2.445,-2.4451,-2.4449,-2.4448,-2.446,-2.4457,-2.4456,-2.4455,-2.4455,-2.4454,0,-2.4089,-2.4105,-2.4156,-2.4188,-2.4197,-2.4229,-2.4256,-2.4284,-2.4297,-2.4337,-2.4348,-2.4369,-2.4406,-2.4421,-2.4466,-2.4473,-2.4524,-2.4524,-2.4514,-2.4514,-2.4542,-2.4539,-2.463,-2.4642,-2.4572,-2.4573,-2.4573,0,-2.4127,-2.4158,-2.4194,-2.4215,-2.4233,-2.4267,-2.429,-2.4302,-2.4326,-2.4361,-2.4385,-2.4422,-2.4452,-2.4512,-2.4531,-2.4566,-2.4566,-2.4595,-2.4571,-2.4567,-2.4565,-2.4562,-2.4565,-2.4599,-2.46,-2.4601,-2.4601,0,-2.4193,-2.42,-2.4232,-2.4268,-2.4294,-2.4323,-2.435,-2.4368,-2.4384,-2.4411,-2.4449,-2.4472,-2.4519,-2.4556,-2.4592,-2.4609,-2.4608,-2.4609,-2.4617,-2.4614,-2.4607,-2.4611,-2.4525,-2.4607,-2.4606,-2.4606,-2.4605,-2.4605,-2.4238,-2.4266,-2.4295,-2.4331,-2.4353,-2.4379,-2.4406,-2.4423,-2.4456,-2.4495,-2.45,-2.4541,-2.4569,-2.4617,-2.4636,-2.4668,-2.466,-2.4672,-2.4675,-2.4677,-2.4679,-2.4603,-2.4674,-2.4674,-2.4674,-2.4674,-2.4674,0,-2.4303,-2.4322,-2.4355,-2.4394,-2.4422,-2.442,-2.445,-2.4474,-2.451,-2.4536,-2.4566,-2.461,-2.4646,-2.4668,-2.4704,-2.4725,-2.4725,-2.4734,-2.4732,-2.4735,-2.4684,-2.4673,-2.4733,-2.4733,-2.4733,-2.4733,-2.4733,-2.4733,-2.4341,-2.4387,-2.4396,-2.4453,-2.4472,-2.4512,-2.4529,-2.4553,-2.4574,-2.4623,-2.4653,-2.4667,-2.4692,-2.4729,-2.4762,-2.4767,-2.478,-2.4789,-2.4794,-2.4745,-2.4739,-2.4733,-2.4723,-2.4792,-2.4792,-2.4842,-2.4843,-2.4843]}]]